Sneeuw/IJzel/Bevriezing van: 27-01-2021 05:00 tot: 11:00 waarschuwing voor: Sneeuw/IJzel/Bevriezing niveau: Geel info button

Weerstation Grootegast  Weerstation Grootegast


waarschuwing voor winterse neerslag Meer informatie rain snow radar


15 daagse weersverwachting Mechelen (BE)

  • Overzicht
  • Per uur
  • 15 dagen
  • Extra
  • Vergelijk
  • Kaarten
  • Dagkaart
  • Meer »
  • Info
  • Statistieken
  • Directe link
    Temp 6h Neerslag Wind  
 08:26     17:25    Daglengte: 8:59 Vandaag
07:00
2.3 mm
7
13:00
 
5
19:00
 
3
 08:25     17:26    Daglengte: 9:01 Morgen
01:00
 
2
07:00
12.7 mm
3
13:00
10°
20.2 mm
6
19:00
10°
18.9 mm
6
 08:23     17:28    Daglengte: 9:05 Vrijdag 29 Jan
01:00
8.0 mm
4
07:00
24.3 mm
6
13:00
10°
22.4 mm
6
19:00
50.4 mm
5
 08:22     17:30    Daglengte: 9:08 Zaterdag 30 Jan
01:00
9.9 mm
4
Locatie info
Region: Vlaanderen
Latitude: 51.0289°N
Longitude: 4.4855°E
8 masl
Postcode: 2800
Temp/Neerslag /Baro Onweer/DauwpuntSneeuw
    Temp Baro 1h Neerslag Dauwpunt Wind UV BewolkingSneeuw  
 08:26     17:25    Daglengte: 8:59 Vandaag
05:00
Voelt als: -3.5°
1012.1 hPa
49%
-0.8°
6
Windvlaag: 5.1 m/s
91%3 cm
06:00
Voelt als: -3.2°
1011.3 hPa 1.3 mm
82%
-0.6°
7
Windvlaag: 5.8 m/s
91%4 cm
07:00
Voelt als: -2.9°
1010.7 hPa 1.1 mm
82%
-0.4°
7
Windvlaag: 5.5 m/s
91%4 cm
08:00
Voelt als: -2.7°
1010.1 hPa
71%
0.2°
7
Windvlaag: 4.9 m/s
91%4 cm
09:00
Voelt als: -2.3°
1010.3 hPa
58%
0.8°
6
Windvlaag: 5 m/s
91%4 cm
10:00
Voelt als: -1.6°
1010.6 hPa
23%
1.6°
6
Windvlaag: 4.5 m/s
91%4 cm
11:00
Voelt als: -0.5°
1010.9 hPa
41%
2.5°
6
Windvlaag: 3.7 m/s
91%3 cm
12:00
Voelt als: 0.5°
1011.3 hPa
64%
3.4°
5
Windvlaag: 3.8 m/s
91%3 cm
13:00
Voelt als: 2.1°
1011.2 hPa
69%
4.4°
5
Windvlaag: 3.4 m/s
91%3 cm
14:00
Voelt als: 3.2°
1011.0 hPa
23%
5.2°
4
Windvlaag: 2.8 m/s
91%3 cm
15:00
Voelt als: 4.2°
1011.1 hPa
17%
6.0°
4
Windvlaag: 2.4 m/s
91%3 cm
16:00
Voelt als: 4.6°
1011.4 hPa
26%
6.3°
4
Windvlaag: 2.3 m/s
91%3 cm
17:00
Voelt als: 4.5°
1011.7 hPa
78%
6.2°
3
Windvlaag: 2.6 m/s
90%2 cm
18:00
Voelt als: 4.4°
1012.1 hPa
66%
6.0°
3
Windvlaag: 2.4 m/s
90%2 cm
19:00
Voelt als: 4.1°
1012.1 hPa
25%
5.8°
3
Windvlaag: 2.3 m/s
90%2 cm
20:00
Voelt als: 4.1°
1012.2 hPa
74%
5.7°
3
Windvlaag: 2.1 m/s
88%2 cm
21:00
Voelt als: 3.5°
1012.2 hPa
76%
5.1°
3
Windvlaag: 2.1 m/s
84%2 cm
22:00
Voelt als: 3.1°
1012.1 hPa
23%
4.9°
3
Windvlaag: 2 m/s
87%2 cm
23:00
Voelt als: 3.4°
1012.0 hPa
16%
4.9°
2
Windvlaag: 1.7 m/s
90%2 cm
 08:25     17:26    Daglengte: 9:01 Morgen
00:00
Voelt als: 4.0°
1011.7 hPa
14%
5.1°
2
Windvlaag: 1.6 m/s
87%2 cm
01:00
Voelt als: 3.9°
1011.1 hPa
65%
5.1°
2
Windvlaag: 1.6 m/s
89%2 cm
02:00
Voelt als: 3.9°
1010.5 hPa 1.8 mm
82%
5.2°
2
Windvlaag: 1.5 m/s
90%2 cm
03:00
Voelt als: 3.8°
1009.6 hPa 2.1 mm
82%
5.1°
2
Windvlaag: 1.2 m/s
89%2 cm
04:00
Voelt als: 3.9°
1008.3 hPa 1.7 mm
82%
5.2°
2
Windvlaag: 1.3 m/s
91%2 cm
05:00
Voelt als: 3.7°
1007.1 hPa 1.8 mm
82%
5.2°
2
Windvlaag: 1.3 m/s
91%2 cm
06:00
Voelt als: 3.6°
1006.2 hPa 2.3 mm
82%
5.2°
2
Windvlaag: 1.2 m/s
91%2 cm
07:00
Voelt als: 3.5°
1004.8 hPa 2.9 mm
82%
5.3°
3
Windvlaag: 1.6 m/s
91%2 cm
08:00
Voelt als: 3.4°
1003.7 hPa 3.3 mm
82%
5.5°
3
Windvlaag: 1.4 m/s
91%2 cm
09:00
Voelt als: 3.5°
1002.5 hPa 3.3 mm
82%
5.7°
4
Windvlaag: 1.9 m/s
91%2 cm
10:00
Voelt als: 4.6°
1001.5 hPa 4.2 mm
82%
6.2°
3
Windvlaag: 2.1 m/s
91%1 cm
11:00
Voelt als: 5.9°
1000.8 hPa 3.8 mm
82%
7.8°
4
Windvlaag: 1.6 m/s
91%1 cm
12:00
Voelt als: 6.4°
1000.5 hPa 2.8 mm
82%
8.5°
5
Windvlaag: 1.6 m/s
90%1 cm
13:00
10°
1000.3 hPa 2.8 mm
82%
9.0°
6
Windvlaag: 1.2 m/s
84%1 cm
14:00
11°
1000.3 hPa
82%
9.4°
7
Windvlaag: 1.2 m/s
88%1 cm
15:00
11°
1000.4 hPa 3.8 mm
82%
9.3°
7
Windvlaag: 0.8 m/s
91%1 cm
16:00
11°
1000.9 hPa 3.8 mm
82%
9.1°
7
Windvlaag: 0.7 m/s
91%1 cm
17:00
11°
1001.3 hPa 3.8 mm
69%
9.0°
7
Windvlaag: 0.6 m/s
90%1 cm
18:00
10°
1001.7 hPa 3.8 mm
26%
8.7°
7
Windvlaag: 1.4 m/s
91%1 cm
19:00
10°
1002.1 hPa 3.8 mm
55%
8.6°
6
Windvlaag: 1.7 m/s
87%1 cm
20:00
10°
Voelt als: 7.4°
1002.3 hPa 3.9 mm
71%
8.5°
5
Windvlaag: 1.7 m/s
88%1 cm
21:00
10°
Voelt als: 7.4°
1002.5 hPa 4.1 mm
34%
8.4°
5
Windvlaag: 2 m/s
89%1 cm
22:00
Voelt als: 6.8°
1002.9 hPa
85%
8.4°
5
Windvlaag: 2 m/s
100%1 cm
23:00
Voelt als: 6.9°
1002.8 hPa
90%
8.7°
5
Windvlaag: 2.9 m/s
100%1 cm
 08:23     17:28    Daglengte: 9:05 Vrijdag 29 Jan
00:00
Voelt als: 6.9°
1002.4 hPa
100%
8.7°
5
Windvlaag: 3.2 m/s
100%1 cm
01:00
Voelt als: 6.9°
1001.7 hPa
100%
8.7°
4
Windvlaag: 3.4 m/s
100%1 cm
02:00
Voelt als: 7.1°
1000.6 hPa
100%
8.8°
4
Windvlaag: 3.4 m/s
100%1 cm
03:00
Voelt als: 6.9°
999.6 hPa 4.3 mm
100%
8.8°
5
Windvlaag: 3.6 m/s
100%1 cm
04:00
Voelt als: 6.7°
998.3 hPa 5.0 mm
100%
8.3°
4
Windvlaag: 3.3 m/s
100%1 cm
05:00
Voelt als: 6.6°
997.0 hPa 4.9 mm
100%
8.3°
5
Windvlaag: 3.7 m/s
100%1 cm
06:00
Voelt als: 6.6°
996.0 hPa 4.7 mm
100%
8.1°
6
Windvlaag: 4.2 m/s
100%1 cm
07:00
Voelt als: 6.3°
995.7 hPa 5.4 mm
91%
8.2°
6
Windvlaag: 4.4 m/s
100%1 cm
08:00
10°
Voelt als: 6.4°
996.0 hPa 8.6 mm
87%
8.6°
7
Windvlaag: 1.9 m/s
100%1 cm
09:00
Voelt als: 5.7°
997.0 hPa
35%
7.5°
8
Windvlaag: 2 m/s
87%1 cm
10:00
Voelt als: 5.7°
997.6 hPa
30%
6.9°
7
Windvlaag: 2.1 m/s
88%1 cm
11:00
10°
Voelt als: 6.3°
997.7 hPa
71%
7.2°
7
Windvlaag: 2.5 m/s
81%1 cm
12:00
10°
998.0 hPa 8.5 mm
96%
7.5°
7
Windvlaag: 2.3 m/s
79%1 cm
13:00
10°
997.8 hPa 5.3 mm
100%
7.9°
6
Windvlaag: 2.2 m/s
85%1 cm
14:00
11°
997.2 hPa 5.5 mm
100%
7.6°
6
Windvlaag: 2 m/s
84%
15:00
10°
997.0 hPa 6.7 mm
100%
7.4°
7
Windvlaag: 1.6 m/s
86%
16:00
Voelt als: 6.4°
996.9 hPa 9.4 mm
88%
7.2°
6
Windvlaag: 1.8 m/s
61%
17:00
Voelt als: 5.8°
996.9 hPa 9.7 mm
50%
6.9°
6
Windvlaag: 1.8 m/s
65%
18:00
Voelt als: 5.3°
996.9 hPa 9.5 mm
48%
6.7°
6
Windvlaag: 1.9 m/s
94%
19:00
Voelt als: 5.0°
997.2 hPa 9.6 mm
100%
6.2°
5
Windvlaag: 1.9 m/s
95%
20:00
Voelt als: 5.0°
997.5 hPa
95%
6.2°
5
Windvlaag: 12.8 m/s
96%
21:00
Voelt als: 5.0°
998.0 hPa 9.9 mm
97%
6.4°
5
Windvlaag: 11.4 m/s
97%
22:00
Voelt als: 5.1°
998.2 hPa
90%
6.4°
5
Windvlaag: 11 m/s
94%
23:00
Voelt als: 5.0°
998.5 hPa
100%
6.4°
4
Windvlaag: 9.2 m/s
95%
 08:22     17:30    Daglengte: 9:08 Zaterdag 30 Jan
00:00
Voelt als: 5.2°
998.7 hPa
36%
6.6°
4
Windvlaag: 8 m/s
95%
01:00
Voelt als: 5.2°
998.8 hPa
26%
6.7°
4
Windvlaag: 1 m/s
92%
02:00
Voelt als: 4.8°
999.1 hPa 29.8 mm
100%
6.3°
4
Windvlaag: 6.1 m/s
100%
03:00
Voelt als: 4.7°
998.4 hPa 29.8 mm
100%
6.1°
3
Windvlaag: 5.2 m/s
100%
04:00
Voelt als: 4.7°
997.7 hPa 29.8 mm
100%
6.0°
3
Windvlaag: 4.3 m/s
100%
Temp/Neerslag /Baro Onweer/DauwpuntSneeuw
    Temp Baro Neerslag Dauwpunt Wind BewolkingSneeuw  
 08:26     17:25    Daglengte: 8:59 Vandaag
07:00
Voelt als: -2.9°
1010.7 hPa 2.3 mm -0.4°
7
91%4 cm
10:00
Voelt als: -1.6°
1010.6 hPa   1.6°
6
91%4 cm
13:00
Voelt als: 2.1°
1011.2 hPa   4.4°
5
91%3 cm
16:00
Voelt als: 4.6°
1011.4 hPa   6.3°
4
91%3 cm
19:00
Voelt als: 4.1°
1012.1 hPa   5.8°
3
90%2 cm
22:00
Voelt als: 3.1°
1012.1 hPa   4.9°
3
87%2 cm
 08:25     17:26    Daglengte: 9:01 Morgen
01:00
Voelt als: 3.9°
1011.1 hPa   5.1°
2
89%2 cm
04:00
Voelt als: 3.9°
1008.3 hPa 5.6 mm 5.2°
2
91%2 cm
07:00
Voelt als: 3.5°
1004.8 hPa 7.1 mm 5.3°
3
91%2 cm
10:00
Voelt als: 4.6°
1001.5 hPa 10.8 mm 6.2°
3
91%1 cm
13:00
10°
1000.3 hPa 9.4 mm 9.0°
6
84%1 cm
16:00
11°
1000.9 hPa 7.5 mm 9.1°
7
91%1 cm
19:00
10°
1002.1 hPa 11.4 mm 8.6°
6
87%1 cm
22:00
Voelt als: 6.8°
1002.9 hPa 8.0 mm 8.4°
5
100%1 cm
 08:23     17:28    Daglengte: 9:05 Vrijdag 29 Jan
01:00
Voelt als: 6.9°
1001.7 hPa   8.7°
4
100%1 cm
04:00
Voelt als: 6.7°
998.3 hPa 9.3 mm 8.3°
4
100%1 cm
07:00
Voelt als: 6.3°
995.7 hPa 15.0 mm 8.2°
6
100%1 cm
10:00
Voelt als: 5.7°
997.6 hPa 8.6 mm 6.9°
7
88%1 cm
13:00
10°
997.8 hPa 13.8 mm 7.9°
6
85%1 cm
16:00
Voelt als: 6.4°
996.9 hPa 21.6 mm 7.2°
6
61%
19:00
Voelt als: 5.0°
997.2 hPa 28.8 mm 6.2°
5
95%
22:00
Voelt als: 5.1°
998.2 hPa 9.9 mm 6.4°
5
94%
 08:22     17:30    Daglengte: 9:08 Zaterdag 30 Jan
01:00
Voelt als: 5.2°
998.8 hPa   6.7°
4
92%
04:00
Voelt als: 4.7°
997.7 hPa 89.3 mm 6.0°
3
100%
07:00
Voelt als: 4.3°
995.8 hPa 89.5 mm 5.3°
2
100%
10:00
Voelt als: 4.6°
994.1 hPa 31.4 mm 5.9°
3
92%
13:00
Voelt als: 4.7°
993.2 hPa 31.4 mm 6.1°
4
92%
16:00
Voelt als: 2.7°
994.3 hPa 31.5 mm 4.8°
4
92%
19:00
Voelt als: 0.5°
995.7 hPa 31.5 mm 3.4°
5
92%
22:00
Voelt als: -1.8°
998.7 hPa 31.5 mm 1.1°
5
85%
 08:20     17:32    Daglengte: 9:12 Zondag 31 Jan
01:00
Voelt als: -4.0°
1001.6 hPa 31.5 mm -1.2°
5
79% warningclass
04:00
-1°
Voelt als: -6.1°
1003.7 hPa 31.5 mm -3.6°
4
50% warningclass
07:00
-4°
Voelt als: -8.0°
1005.9 hPa 31.5 mm -6.0°
3
22% warningclass
10:00
-1°
Voelt als: -5.8°
1005.8 hPa 31.5 mm -5.2°
4
57% warningclass
13:00
Voelt als: -3.5°
1005.5 hPa 31.5 mm -4.7°
4
92% warningclass
16:00
Voelt als: -3.8°
1003.3 hPa 31.5 mm -4.9°
4
92% warningclass
19:00
Voelt als: -4.5°
1001.2 hPa 31.5 mm -5.2°
5
92% warningclass
22:00
-0°
Voelt als: -5.0°
999.4 hPa 31.6 mm -5.6°
5
91% warningclass
 08:19     17:33    Daglengte: 9:14 Maandag 01 Feb
01:00
-0°
Voelt als: -5.2°
997.7 hPa 34.0 mm -5.9°
5
90% warningclass
04:00
-1°
Voelt als: -5.5°
997.3 hPa 35.4 mm -5.6°
5
88% warningclass
07:00
-1°
Voelt als: -5.8°
997.2 hPa 35.5 mm -5.4°
4
86% warningclass
10:00
Voelt als: -3.4°
998.7 hPa 36.2 mm -4.5°
5
88% warningclass
13:00
Voelt als: -1.2°
1000.3 hPa 38.2 mm -3.8°
5
90%
16:00
Voelt als: -1.4°
1002.5 hPa 39.6 mm -5.1°
5
91%
19:00
Voelt als: -1.7°
1004.7 hPa 39.6 mm -6.4°
5
92%
22:00
Voelt als: -2.3°
1006.5 hPa 39.6 mm -3.7°
4
92%
 08:17     17:35    Daglengte: 9:18 Dinsdag 02 Feb
01:00
Voelt als: -2.8°
1008.1 hPa 40.3 mm -1.6°
4
92% warningclass
04:00
Voelt als: -1.9°
1009.1 hPa 43.6 mm -0.9°
3
90%
07:00
Voelt als: -1.3°
1010.3 hPa 43.7 mm -0.6°
3
89%
10:00
Voelt als: 1.3°
1010.5 hPa 43.8 mm 2.2°
4
90%
13:00
Voelt als: 4.3°
1010.7 hPa 44.2 mm 5.1°
4
92%
16:00
Voelt als: 3.6°
1008.9 hPa 44.5 mm 5.0°
5
92%
19:00
Voelt als: 3.0°
1006.8 hPa 44.6 mm 4.8°
5
92%
22:00
Voelt als: 5.4°
1005.3 hPa 47.6 mm 7.2°
6
92%
 08:16     17:37    Daglengte: 9:21 Woensdag 03 Feb
01:00
10°
1003.9 hPa 47.7 mm 9.0°
6
92%
04:00
10°
1003.1 hPa   8.8°
6
92%
07:00
10°
1002.5 hPa 95.4 mm 8.7°
7
92%
13:00
12°
1004.6 hPa 95.4 mm 9.0°
7
27%
19:00
Voelt als: 5.7°
1006.2 hPa 96.0 mm 6.2°
4
72%
 08:14     17:39    Daglengte: 9:25 Donderdag 04 Feb
01:00
Voelt als: 6.1°
1004.2 hPa 96.0 mm 7.2°
3
62%
07:00
Voelt als: 5.0°
1003.8 hPa 97.2 mm 6.8°
5
86%
13:00
Voelt als: 6.3°
1006.4 hPa 97.8 mm 5.9°
7
81%
19:00
Voelt als: 4.4°
1008.1 hPa 98.1 mm 4.4°
4
18%
 08:12     17:41    Daglengte: 9:29 Vrijdag 05 Feb
01:00
Voelt als: 0.8°
1010.2 hPa 98.3 mm 3.1°
4
81%
07:00
Voelt als: -0.4°
1010.1 hPa 98.3 mm 1.9°
3
87%
13:00
Voelt als: 5.2°
1010.7 hPa 98.3 mm 2.9°
4
1%
19:00
Voelt als: 3.1°
1011.0 hPa 98.3 mm 3.0°
3
0%
 08:11     17:42    Daglengte: 9:31 Zaterdag 06 Feb
01:00
Voelt als: 2.4°
1011.2 hPa 0.5 mm 0.7°
2
64%
07:00
Voelt als: 1.5°
1011.1 hPa 0.8 mm -0.2°
2
65%
13:00
Voelt als: 4.0°
1011.5 hPa 0.5 mm -0.1°
2
66%
19:00
Voelt als: 3.4°
1011.9 hPa 0.6 mm 0.2°
2
69%
 08:09     17:44    Daglengte: 9:35 Zondag 07 Feb
01:00
Voelt als: 1.1°
1012.3 hPa 0.6 mm -0.1°
2
70%
07:00
Voelt als: 0.4°
1011.3 hPa 0.2 mm -0.1°
2
73%
13:00
Voelt als: 2.9°
1011.3 hPa 0.5 mm 0.2°
3
79%
19:00
Voelt als: 3.5°
1010.9 hPa 0.2 mm 0.8°
1
70%
 08:07     17:46    Daglengte: 9:39 Maandag 08 Feb
01:00
Voelt als: 2.9°
1011.4 hPa 1.4 mm 0.7°
1
71%
07:00
Voelt als: 2.4°
1011.4 hPa   0.5°
1
80%
13:00
Voelt als: 5.2°
1012.9 hPa 0.5 mm 0.4°
1
81%
19:00
1013.9 hPa 0.4 mm -0.4°
0
80%
 08:05     17:48    Daglengte: 9:43 Dinsdag 09 Feb
01:00
1015.0 hPa 0.6 mm -0.5°
1
71%
07:00
Voelt als: 2.6°
1014.7 hPa 0.5 mm -0.2°
1
76%
13:00
Voelt als: 5.5°
1015.5 hPa 0.4 mm 0.3°
1
76%
19:00
1015.9 hPa 0.2 mm 0.4°
0
79%
 08:04     17:50    Daglengte: 9:46 Woensdag 10 Feb
01:00
Voelt als: 3.4°
1016.6 hPa 0.2 mm 0.2°
1
74%
07:00
Voelt als: 2.4°
1015.0 hPa 0.7 mm 0.1°
1
74%
13:00
Voelt als: 5.5°
1014.2 hPa 0.2 mm 1.3°
2
75%
19:00
Voelt als: 5.0°
1015.2 hPa 0.5 mm 1.2°
1
77%
 08:02     17:51    Daglengte: 9:49 Donderdag 11 Feb
01:00
Voelt als: 3.1°
1016.4 hPa 0.3 mm 1.1°
1
76%
  CAPE Lifted Index Hail Supercell Tornado SRH 3km CL BTM PRES CL TOP PRES Swiss DWD icon SMHI TS
 08:26     17:25    Daglengte: 8:59 Vandaag
05:00 0 J/kg 3.5 K 0 % 0 % 0 % 0 m²/s² 0 0 3.77 61
06:00 0 J/kg 3.0 K 0 % 0 % 0 % 0 m²/s² 0 0 3.45 61
07:00 0 J/kg 2.2 K 0 % 0 % 0 % 0 m²/s² 0 0 2.89 61
08:00 0 J/kg 1.2 K 0 % 0 % 0 % 0 m²/s² 0 0 3.06 61
09:00 0 J/kg 2.4 K 0 % 0 % 0 % 0 m²/s² 0 0 6.24 3
10:00 0 J/kg 3.3 K 0 % 0 % 0 % 0 m²/s² 0 0 11.25 3
11:00 0 J/kg 4.5 K 0 % 0 % 0 % 0 m²/s² 0 0 10.53 3
12:00 0 J/kg 4.1 K 0 % 0 % 0 % 0 m²/s² 0 0 9.17 3
13:00 6 J/kg 4.4 K 0 % 0 % 0 % 0 m²/s² 0 0 9.92 3
14:00 6 J/kg 4.0 K 0 % 0 % 0 % 0 m²/s² 0 0 9.7 3
15:00 7 J/kg 4.1 K 0 % 0 % 0 % 0 m²/s² 0 0 9.35 3
16:00 6 J/kg 5.0 K 0 % 0 % 0 % 0 m²/s² 0 0 9.59 3
17:00 10 J/kg 6.1 K 0 % 0 % 0 % 0 m²/s² 0 0 10.06 3
18:00 9 J/kg 6.9 K 0 % 0 % 0 % 0 m²/s² 0 0 10.86 3
19:00 7 J/kg 7.7 K 0 % 0 % 0 % 0 m²/s² 0 0 11.66 3
20:00 4 J/kg 8.6 K 0 % 0 % 0 % 0 m²/s² 0 0 12.29 3
21:00 6 J/kg 9.4 K 0 % 0 % 0 % 0 m²/s² 0 0 12.64 3
22:00 6 J/kg 10.3 K 0 % 0 % 0 % 0 m²/s² 0 0 12.97 3
23:00 4 J/kg 10.8 K 0 % 0 % 0 % 0 m²/s² 0 0 13.14 3
 08:25     17:26    Daglengte: 9:01 Morgen
00:00 4 J/kg 11.4 K 0 % 0 % 0 % 0 m²/s² 0 0 12.93 3
01:00 4 J/kg 11.7 K 0 % 0 % 0 % 0 m²/s² 0 0 12.72 3
02:00 0 J/kg 11.9 K 0 % 0 % 0 % 0 m²/s² 0 0 12.26 61
03:00 0 J/kg 11.9 K 0 % 0 % 0 % 0 m²/s² 0 0 12.23 61
04:00 0 J/kg 10.8 K 0 % 0 % 0 % 0 m²/s² 0 0 11.1 61
05:00 0 J/kg 8.5 K 0 % 0 % 0 % 0 m²/s² 0 0 8.74 61
06:00 1 J/kg 8.4 K 0 % 0 % 0 % 0 m²/s² 0 0 8.61 61
07:00 1 J/kg 8.3 K 0 % 0 % 0 % 0 m²/s² 0 0 8.51 61
08:00 1 J/kg 7.3 K 0 % 0 % 0 % 0 m²/s² 0 0 7.51 61
09:00 0 J/kg 4.8 K 0 % 0 % 0 % 0 m²/s² 0 0 5.01 61
10:00 1 J/kg 4.1 K 0 % 0 % 0 % 0 m²/s² 0 0 4.25 63
11:00 1 J/kg 2.0 K 0 % 0 % 0 % 0 m²/s² 0 0 2.42 55
12:00 0 J/kg 0.8 K 0 % 0 % 0 % 0 m²/s² 0 0 1.55 80
13:00 0 J/kg 1.2 K 0 % 0 % 0 % 0 m²/s² 0 0 1.83 80
14:00 0 J/kg 0.8 K 0 % 0 % 0 % 0 m²/s² 0 0 1.22 3
15:00 8 J/kg 1.3 K 0 % 0 % 0 % 0 m²/s² 0 0 1.96 3
16:00 7 J/kg 1.7 K 0 % 0 % 0 % 0 m²/s² 0 0 2.42 80
17:00 5 J/kg 2.2 K 0 % 0 % 0 % 0 m²/s² 0 0 3.7 3
18:00 6 J/kg 3.0 K 0 % 0 % 0 % 0 m²/s² 0 0 4.98 3
19:00 0 J/kg 3.3 K 0 % 0 % 0 % 0 m²/s² 0 0 6.39 2
20:00 0 J/kg 3.8 K 0 % 0 % 0 % 0 m²/s² 0 0 7.31 3
21:00 0 J/kg 4.1 K 0 % 0 % 0 % 0 m²/s² 0 0 7.43 3
22:00 0 J/kg 4.2 K 0 % 0 % 0 % 0 m²/s² 0 0 7.17 3
23:00 0 J/kg 4.9 K 0 % 0 % 0 % 0 m²/s² 0 0 6.64 3
 08:23     17:28    Daglengte: 9:05 Vrijdag 29 Jan
00:00 1 J/kg 4.7 K 0 % 0 % 0 % 0 m²/s² 0 0 5.03 3
01:00 0 J/kg 3.9 K 0 % 0 % 0 % 0 m²/s² 0 0 4.2 3
02:00 0 J/kg 4.5 K 0 % 0 % 0 % 0 m²/s² 0 0 4.74 3
03:00 0 J/kg 4.7 K 0 % 0 % 0 % 0 m²/s² 0 0 4.94 61
04:00 0 J/kg 3.1 K 0 % 0 % 0 % 0 m²/s² 0 0 3.34 61
05:00 1 J/kg 1.7 K 0 % 0 % 0 % 0 m²/s² 0 0 2.12 61
06:00 1 J/kg 1.4 K 0 % 0 % 0 % 0 m²/s² 0 0 2.33 80
07:00 9 J/kg 2.3 K 0 % 0 % 0 % 0 m²/s² 0 0 5.15 3
08:00 7 J/kg 2.1 K 0 % 0 % 0 % 0 m²/s² 0 0 5.61 3
09:00 3 J/kg 2.9 K 0 % 0 % 0 % 0 m²/s² 0 0 7.28 3
10:00 0 J/kg 2.6 K 0 % 0 % 0 % 0 m²/s² 0 0 6.83 2
11:00 6 J/kg 2.0 K 0 % 0 % 0 % 0 m²/s² 0 0 5.9 2
12:00 18 J/kg 1.7 K 0 % 0 % 0 % 0 m²/s² 0 0 5.6 2
13:00 9 J/kg 1.7 K 0 % 0 % 0 % 0 m²/s² 0 0 5.51 80
14:00 97 J/kg 1.3 K 0 % 0 % 0 % 0 m²/s² 0 0 2.2 80
15:00 172 J/kg 0.4 K 0 % 0 % 0 % 0 m²/s² 0 0 0.76 61
16:00 44 J/kg 1.5 K 0 % 0 % 0 % 0 m²/s² 0 0 1.92 2
17:00 56 J/kg 0.7 K 0 % 0 % 0 % 0 m²/s² 0 0 1.18 3
18:00 33 J/kg -0.1 K 0 % 0 % 0 % 0 m²/s² 0 0 0.5 3
19:00 30 J/kg 0.4 K 0 % 0 % 0 % 0 m²/s² 0 0 1.39 3
20:00 30 J/kg 0.0 K 0 % 0 % 0 % 0 m²/s² 0 0 0.57 3
21:00 45 J/kg 0.7 K 0 % 0 % 0 % 0 m²/s² 0 0 1.69 61
22:00 32 J/kg 1.5 K 0 % 0 % 0 % 0 m²/s² 0 0 2.88 3
23:00 22 J/kg 2.8 K 0 % 0 % 0 % 0 m²/s² 0 0 5.5 3
 08:22     17:30    Daglengte: 9:08 Zaterdag 30 Jan
00:00 21 J/kg 4.0 K 0 % 0 % 0 % 0 m²/s² 0 0 6.79 3
01:00 17 J/kg 5.5 K 0 % 0 % 0 % 0 m²/s² 0 0 8.53 2
02:00 4 J/kg 6.3 K 0 % 0 % 0 % 0 m²/s² 0 0 9.42
03:00 0 J/kg 6.9 K 0 % 0 % 0 % 0 m²/s² 0 0 10.56
04:00 0 J/kg 7.1 K 0 % 0 % 0 % 0 m²/s² 0 0 11.36
Temp Baro Wind Neerslag
  EWN Forecast EWN WRFDA DWD ICON FMI HIRLAM MET Norway GFSWXSIM
 08:26     17:25    Daglengte: 8:59 Vandaag
07:00 2.2° 1010.7 hPa 6.5 m/s 2.3 mm 1.9° 1008.0 hPa 6.7 m/s 17.5 mm 2.1° 1010.9 hPa 5.3 m/s 0.2 mm 2.7° 1010.5 hPa 7.0 m/s 0.0 mm 2.4° 1011.0 hPa 6.4 m/s 2.0° 1011.1 hPa 5.8 m/s
10:00 3.1° 1010.6 hPa 6.1 m/s 0.0 mm 2.7° 1008.0 hPa 6.7 m/s 19.7 mm 2.8° 1010.8 hPa 4.5 m/s 0.1 mm 3.7° 1010.3 hPa 7.1 m/s 0.0 mm 3.5° 1010.8 hPa 5.5 m/s 3.0° 1010.9 hPa 5.4 m/s
13:00 5.4° 1011.2 hPa 4.5 m/s 0.0 mm 5.5° 1009.3 hPa 4.5 m/s 19.9 mm 5.9° 1012.5 hPa 3.2 m/s 0.0 mm 5.6° 1010.1 hPa 5.9 m/s 0.0 mm 5.8° 1011.2 hPa 4.3 m/s 6.2° 1012.1 hPa 5.2 m/s
16:00 7.1° 1011.4 hPa 3.6 m/s 0.0 mm 5.4° 1009.3 hPa 3.3 m/s 20.2 mm 7.5° 1012.6 hPa 2.5 m/s 0.0 mm 7.5° 1009.7 hPa 4.7 m/s 0.0 mm 7.5° 1011.6 hPa 3.8 m/s 6.9° 1012.2 hPa 3.8 m/s
19:00 6.3° 1012.1 hPa 2.9 m/s 0.0 mm 5.3° 1010.7 hPa 3.6 m/s 21.1 mm 6.8° 1013.3 hPa 2.4 m/s 0.0 mm 7.7° 1009.4 hPa 3.0 m/s 0.0 mm 6.4° 1012.4 hPa 2.7 m/s 6.3° 1013.4 hPa 3.4 m/s
22:00 5.2° 1012.1 hPa 2.6 m/s 0.0 mm 4.9° 1011.7 hPa 2.4 m/s 22.6 mm 6.3° 1013.5 hPa 1.9 m/s 0.0 mm 7.0° 1009.3 hPa 2.8 m/s 0.0 mm 5.0° 1012.4 hPa 2.9 m/s 5.5° 1013.8 hPa 3.6 m/s
 08:25     17:26    Daglengte: 9:01 Morgen
01:00 5.5° 1011.1 hPa 2.1 m/s 0.0 mm 4.9° 1011.0 hPa 2.3 m/s 23.8 mm 6.1° 1012.2 hPa 1.4 m/s 0.0 mm 6.8° 1007.9 hPa 2.0 m/s 0.0 mm 5.5° 1011.8 hPa 2.7 m/s 4.4° 1013.3 hPa 2.6 m/s
04:00 5.6° 1008.3 hPa 2.2 m/s 5.6 mm 4.6° 1008.9 hPa 2.0 m/s 24.3 mm 6.4° 1009.3 hPa 2.0 m/s 2.1 mm 7.3° 1004.4 hPa 2.2 m/s 0.0 mm 5.6° 1008.7 hPa 2.7 m/s 5.0° 1010.1 hPa 2.2 m/s
07:00 5.6° 1004.8 hPa 2.7 m/s 7.1 mm 4.9° 1005.4 hPa 3.7 m/s 28.4 mm 6.8° 1005.1 hPa 2.7 m/s 3.2 mm 7.9° 1001.2 hPa 2.3 m/s 0.0 mm 5.5° 1005.2 hPa 3.1 m/s 6.2° 1006.7 hPa 2.8 m/s
10:00 6.9° 1001.5 hPa 3.2 m/s 10.8 mm 5.8° 1001.5 hPa 2.9 m/s 41.7 mm 8.7° 1001.4 hPa 4.8 m/s 6.5 mm 8.5° 997.3 hPa 3.7 m/s 0.0 mm 6.9° 1002.1 hPa 3.1 m/s 9.1° 1003.2 hPa 5.7 m/s
13:00 10.3° 1000.3 hPa 6.0 m/s 9.4 mm 9.8° 1000.3 hPa 7.3 m/s 53.3 mm 11.7° 1000.9 hPa 6.5 m/s 2.6 mm 10.6° 996.0 hPa 3.9 m/s 0.0 mm 11.3° 1000.4 hPa 7.8 m/s 10.8° 1001.9 hPa 7.5 m/s
16:00 10.8° 1000.9 hPa 7.0 m/s 7.5 mm 10.3° 1000.2 hPa 6.9 m/s 54.4 mm 12.2° 1001.5 hPa 6.7 m/s 0.3 mm 12.7° 996.6 hPa 9.3 m/s 0.0 mm 11.3° 1000.7 hPa 7.9 m/s 11.4° 1001.8 hPa 7.3 m/s
19:00 10.2° 1002.1 hPa 6.2 m/s 11.4 mm 9.7° 1000.9 hPa 7.5 m/s 54.8 mm 11.0° 1002.8 hPa 4.9 m/s 0.0 mm 12.1° 998.6 hPa 8.0 m/s 0.0 mm 10.7° 1001.9 hPa 6.8 m/s 11.1° 1003.3 hPa 7.1 m/s
22:00 9.4° 1002.9 hPa 5.0 m/s 8.0 mm 9.4° 1001.5 hPa 6.0 m/s 54.9 mm 10.0° 1002.8 hPa 4.1 m/s 0.0 mm 10.3° 1002.6 hPa 5.6 m/s 10.3° 1003.8 hPa 6.9 m/s
 08:23     17:28    Daglengte: 9:05 Vrijdag 29 Jan
01:00 9.3° 1001.7 hPa 4.4 m/s 0.0 mm 9.0° 1000.3 hPa 5.5 m/s 55.7 mm 9.7° 1001.1 hPa 3.5 m/s 0.3 mm 9.4° 1001.5 hPa 4.4 m/s 9.9° 1002.2 hPa 5.5 m/s
04:00 9.0° 998.3 hPa 4.1 m/s 9.3 mm 8.7° 996.6 hPa 2.4 m/s 62.9 mm 9.7° 997.7 hPa 4.1 m/s 0.8 mm 9.0° 998.2 hPa 4.2 m/s 10.1° 998.2 hPa 5.1 m/s
07:00 9.4° 995.7 hPa 6.5 m/s 15.0 mm 9.6° 993.9 hPa 7.5 m/s 75.0 mm 10.5° 996.1 hPa 6.3 m/s 2.6 mm 9.3° 995.6 hPa 6.4 m/s 10.3° 996.1 hPa 6.5 m/s
10:00 9.1° 997.6 hPa 7.2 m/s 8.6 mm 8.9° 995.8 hPa 9.2 m/s 75.6 mm 9.5° 997.5 hPa 4.9 m/s 0.1 mm 9.0° 998.0 hPa 7.4 m/s 9.0° 997.6 hPa 8.6 m/s
13:00 10.4° 997.8 hPa 6.1 m/s 13.8 mm 9.3° 997.3 hPa 9.4 m/s 75.9 mm 10.7° 996.5 hPa 6.6 m/s 0.5 mm 10.5° 998.5 hPa 5.1 m/s 11.0° 999.8 hPa 8.3 m/s
16:00 9.4° 996.9 hPa 6.2 m/s 21.6 mm 8.7° 996.5 hPa 6.2 m/s 79.3 mm 9.7° 993.9 hPa 6.5 m/s 1.8 mm 9.4° 998.1 hPa 6.2 m/s 8.9° 999.3 hPa 7.9 m/s
19:00 8.1° 997.2 hPa 5.5 m/s 28.8 mm 8.5° 995.8 hPa 8.3 m/s 84.5 mm 8.6° 995.1 hPa 5.0 m/s 0.0 mm 7.7° 998.8 hPa 5.2 m/s 8.4° 999.3 hPa 8.9 m/s
22:00 7.9° 998.2 hPa 4.7 m/s 9.9 mm 8.1° 997.0 hPa 6.3 m/s 87.7 mm 8.3° 996.9 hPa 4.2 m/s 0.1 mm 7.7° 999.5 hPa 4.7 m/s 8.4° 1000.0 hPa 8.3 m/s
 08:22     17:30    Daglengte: 9:08 Zaterdag 30 Jan
01:00 7.7° 998.8 hPa 4.1 m/s 0.0 mm 7.5° 997.1 hPa 3.6 m/s 88.9 mm 8.2° 997.7 hPa 4.2 m/s 0.0 mm 7.7° 1000.1 hPa 4.1 m/s 7.4° 999.9 hPa 4.2 m/s
04:00 6.8° 997.7 hPa 3.0 m/s 89.3 mm 5.8° 995.8 hPa 2.3 m/s 89.3 mm 7.0° 998.0 hPa 3.1 m/s 6.8° 999.4 hPa 2.7 m/s
07:00 6.1° 995.8 hPa 2.4 m/s 89.5 mm 5.4° 995.0 hPa 4.0 m/s 89.5 mm 6.2° 995.9 hPa 2.1 m/s 6.9° 998.0 hPa 1.4 m/s
10:00 6.9° 994.1 hPa 3.2 m/s 31.4 mm 7.1° 993.8 hPa 3.0 m/s 4.1° 997.2 hPa 6.0 m/s 31.4 mm
13:00 7.2° 993.2 hPa 3.6 m/s 31.4 mm 7.6° 992.8 hPa 3.4 m/s 2.4° 997.5 hPa 6.0 m/s 31.4 mm
16:00 5.9° 994.3 hPa 4.4 m/s 31.5 mm 6.2° 993.9 hPa 4.2 m/s 2.6° 999.2 hPa 6.8 m/s 31.5 mm
19:00 4.3° 995.7 hPa 5.0 m/s 31.5 mm 4.7° 995.0 hPa 4.9 m/s 0.5° 1003.6 hPa 6.5 m/s 31.5 mm
22:00 2.5° 998.7 hPa 5.1 m/s 31.5 mm 2.8° 997.9 hPa 5.0 m/s -0.9° 1007.9 hPa 5.7 m/s 31.5 mm
 08:20     17:32    Daglengte: 9:12 Zondag 31 Jan
01:00 0.7° 1001.6 hPa 5.1 m/s 31.5 mm 0.9° 1000.8 hPa 5.1 m/s -1.0° 1010.5 hPa 4.9 m/s 31.5 mm
04:00 -1.4° 1003.7 hPa 4.2 m/s 31.5 mm -1.4° 1003.0 hPa 4.2 m/s -1.1° 1010.9 hPa 3.1 m/s 31.5 mm
07:00 -3.5° 1005.9 hPa 3.3 m/s 31.5 mm -3.7° 1005.3 hPa 3.4 m/s -1.4° 1012.5 hPa 1.8 m/s 31.5 mm
10:00 -1.4° 1005.8 hPa 3.7 m/s 31.5 mm -1.6° 1005.2 hPa 3.8 m/s -0.3° 1012.6 hPa 2.6 m/s 31.5 mm
13:00 0.7° 1005.5 hPa 4.2 m/s 31.5 mm 0.6° 1005.1 hPa 4.2 m/s 2.3° 1010.1 hPa 4.3 m/s 31.5 mm
16:00 0.6° 1003.3 hPa 4.4 m/s 31.5 mm 0.3° 1003.0 hPa 4.4 m/s 3.6° 1006.1 hPa 3.9 m/s 31.5 mm
19:00 0.2° 1001.2 hPa 4.6 m/s 31.5 mm 0.0° 1001.0 hPa 4.6 m/s 1.9° 1003.1 hPa 4.4 m/s 31.5 mm
22:00 -0.2° 999.4 hPa 4.8 m/s 31.6 mm -0.3° 999.4 hPa 4.7 m/s 1.7° 999.1 hPa 5.3 m/s 31.6 mm
 08:19     17:33    Daglengte: 9:14 Maandag 01 Feb
01:00 -0.4° 997.7 hPa 4.7 m/s 34.0 mm -0.7° 997.8 hPa 4.8 m/s 3.1° 996.2 hPa 3.9 m/s 34.0 mm
04:00 -0.7° 997.3 hPa 4.6 m/s 35.4 mm -1.0° 997.6 hPa 4.8 m/s 3.6° 994.4 hPa 2.7 m/s 35.4 mm
07:00 -0.9° 997.2 hPa 4.5 m/s 35.5 mm -1.4° 997.4 hPa 4.7 m/s 4.3° 994.7 hPa 2.3 m/s 35.5 mm
10:00 1.0° 998.7 hPa 4.6 m/s 36.2 mm 0.6° 999.0 hPa 4.7 m/s 5.8° 995.6 hPa 3.4 m/s 36.2 mm
13:00 2.9° 1000.3 hPa 4.9 m/s 38.2 mm 2.5° 1000.6 hPa 4.7 m/s 7.2° 997.3 hPa 7.1 m/s 38.2 mm
16:00 2.6° 1002.5 hPa 4.7 m/s 39.6 mm 2.2° 1002.8 hPa 4.6 m/s 7.5° 999.4 hPa 6.4 m/s 39.6 mm
19:00 2.3° 1004.7 hPa 4.5 m/s 39.6 mm 1.9° 1005.0 hPa 4.4 m/s 6.8° 1001.6 hPa 5.6 m/s 39.6 mm
22:00 1.7° 1006.5 hPa 4.1 m/s 39.6 mm 1.3° 1007.0 hPa 4.1 m/s 5.5° 1001.1 hPa 3.7 m/s 39.6 mm
 08:17     17:35    Daglengte: 9:18 Dinsdag 02 Feb
01:00 1.2° 1008.1 hPa 3.9 m/s 40.3 mm 0.7° 1009.0 hPa 3.8 m/s 6.5° 997.8 hPa 4.9 m/s 40.3 mm
04:00 1.7° 1009.1 hPa 3.5 m/s 43.6 mm 0.8° 1010.4 hPa 3.0 m/s 10.9° 995.1 hPa 8.4 m/s 43.6 mm
07:00 1.7° 1010.3 hPa 2.9 m/s 43.7 mm 1.0° 1011.7 hPa 2.3 m/s 9.9° 995.3 hPa 9.6 m/s 43.7 mm
10:00 4.3° 1010.5 hPa 3.5 m/s 43.8 mm 3.8° 1011.8 hPa 2.8 m/s 10.4° 995.6 hPa 11.6 m/s 43.8 mm
13:00 6.9° 1010.7 hPa 3.9 m/s 44.2 mm 6.5° 1011.9 hPa 3.3 m/s 11.1° 997.1 hPa 10.0 m/s 44.2 mm
16:00 6.7° 1008.9 hPa 4.6 m/s 44.5 mm 6.3° 1009.8 hPa 4.3 m/s 10.7° 998.4 hPa 7.7 m/s 44.5 mm
19:00 6.4° 1006.8 hPa 5.3 m/s 44.6 mm 6.2° 1007.7 hPa 5.4 m/s 8.5° 997.4 hPa 3.8 m/s 44.6 mm
22:00 8.4° 1005.3 hPa 5.5 m/s 47.6 mm 8.2° 1006.3 hPa 5.3 m/s 10.4° 994.0 hPa 7.3 m/s 47.6 mm
 08:16     17:37    Daglengte: 9:21 Woensdag 03 Feb
01:00 10.1° 1003.9 hPa 5.9 m/s 47.7 mm 10.2° 1004.9 hPa 5.3 m/s 9.1° 992.7 hPa 12.0 m/s 47.7 mm
04:00 10.1° 1003.1 hPa 6.5 m/s 47.7 mm 10.4° 1004.0 hPa 6.0 m/s 7.2° 994.3 hPa 11.3 m/s 47.7 mm
07:00 10.2° 1002.5 hPa 6.9 m/s 47.7 mm 10.6° 1003.0 hPa 6.8 m/s 5.6° 996.9 hPa 8.5 m/s 47.7 mm
13:00 11.9° 1004.6 hPa 7.2 m/s 47.7 mm 12.2° 1004.9 hPa 7.2 m/s 8.6° 1000.7 hPa 6.9 m/s 47.7 mm
19:00 8.1° 1006.2 hPa 3.9 m/s 48.0 mm 8.3° 1006.6 hPa 3.9 m/s 5.8° 1002.3 hPa 3.6 m/s 48.0 mm
 08:14     17:39    Daglengte: 9:25 Donderdag 04 Feb
01:00 8.2° 1004.2 hPa 3.4 m/s 48.0 mm 8.5° 1004.5 hPa 3.5 m/s 5.0° 1001.5 hPa 2.8 m/s 48.0 mm
07:00 8.0° 1003.8 hPa 5.3 m/s 48.7 mm 8.3° 1003.9 hPa 5.0 m/s 4.8° 1003.0 hPa 8.2 m/s 48.7 mm
13:00 9.5° 1006.4 hPa 6.8 m/s 48.9 mm 9.7° 1006.4 hPa 7.0 m/s 7.2° 1006.3 hPa 5.0 m/s 48.9 mm
19:00 7.0° 1008.1 hPa 3.8 m/s 49.0 mm 7.1° 1008.2 hPa 4.0 m/s 5.8° 1007.3 hPa 2.0 m/s 49.0 mm
 08:12     17:41    Daglengte: 9:29 Vrijdag 05 Feb
01:00 3.9° 1010.2 hPa 3.7 m/s 49.2 mm 4.0° 1010.3 hPa 3.7 m/s 3.3° 1008.9 hPa 3.3 m/s 49.2 mm
07:00 2.8° 1010.1 hPa 3.4 m/s 49.2 mm 2.8° 1010.1 hPa 3.4 m/s 3.1° 1009.6 hPa 3.9 m/s 49.2 mm
13:00 7.8° 1010.7 hPa 4.4 m/s 49.2 mm 7.8° 1010.7 hPa 4.4 m/s 49.2 mm
19:00 5.2° 1011.0 hPa 2.5 m/s 49.2 mm 5.2° 1011.0 hPa 2.5 m/s 49.2 mm
 08:11     17:42    Daglengte: 9:31 Zaterdag 06 Feb
01:00 3.7° 1011.2 hPa 1.5 m/s 0.5 mm
07:00 2.9° 1011.1 hPa 1.5 m/s 0.8 mm
13:00 5.7° 1011.5 hPa 2.2 m/s 0.5 mm
19:00 4.6° 1011.9 hPa 1.6 m/s 0.6 mm
 08:09     17:44    Daglengte: 9:35 Zondag 07 Feb
01:00 3.2° 1012.3 hPa 2.1 m/s 0.6 mm
07:00 2.9° 1011.3 hPa 2.5 m/s 0.2 mm
13:00 5.2° 1011.3 hPa 2.8 m/s 0.5 mm
19:00 4.5° 1010.9 hPa 1.4 m/s 0.2 mm
 08:07     17:46    Daglengte: 9:39 Maandag 08 Feb
01:00 3.8° 1011.4 hPa 1.3 m/s 1.4 mm
07:00 3.3° 1011.4 hPa 1.3 m/s 0.0 mm
13:00 5.2° 1012.9 hPa 0.7 m/s 0.5 mm
19:00 4.0° 1013.9 hPa 0.3 m/s 0.4 mm
 08:05     17:48    Daglengte: 9:43 Dinsdag 09 Feb
01:00 3.0° 1015.0 hPa 0.7 m/s 0.6 mm
07:00 2.8° 1014.7 hPa 0.8 m/s 0.5 mm
13:00 5.9° 1015.5 hPa 1.1 m/s 0.4 mm
19:00 4.6° 1015.9 hPa 0.4 m/s 0.2 mm
 08:04     17:50    Daglengte: 9:46 Woensdag 10 Feb
01:00 3.7° 1016.6 hPa 0.9 m/s 0.2 mm
07:00 3.2° 1015.0 hPa 1.1 m/s 0.7 mm
13:00 6.5° 1014.2 hPa 1.7 m/s 0.2 mm
19:00 5.3° 1015.2 hPa 1.0 m/s 0.5 mm
 08:02     17:51    Daglengte: 9:49 Donderdag 11 Feb
01:00 4.1° 1016.4 hPa 1.4 m/s 0.3 mm
FMI Hirlam - 7.5 km EWN WRFDA - 12 km DWD ICON - 7 km GFS - 25 km Basiskaart






























































Updatetijd (Europe/Amsterdam) Resolutie Lengte Stap
FMI Hirlam 01:00, 07:00, 13:00, 19:00 7.5 km 49h 1h
EWN WRFDA 03:30, 09:30, 15:30, 21:30 12 km 73h 1h
DWD ICON 22:45, 04:45, 10:45, 16:45 7 km 75h 1h
GFS 01:00, 07:00, 13:00, 19:00 25 km 237h 3h
30+ mm
25-30 mm
20-25 mm
15-20 mm
10-15 mm
6-10 mm
4-6 mm
2-4 mm
1-2 mm
0.5-1 mm
0.2-0.5 mm
0.1-0.2 mm
30+ mm
25-30 mm
20-25 mm
15-20 mm
10-15 mm
6-10 mm
4-6 mm
2-4 mm
1-2 mm
0.5-1 mm
0.2-0.5 mm
0.1-0.2 mm
Sneeuwval
Natte sneeuw
Hagel
Vorst
30+ mm
25-30 mm
20-25 mm
15-20 mm
10-15 mm
6-10 mm
4-6 mm
2-4 mm
1-2 mm
0.5-1 mm
0.2-0.5 mm
0.1-0.2 mm
Sneeuwval
Natte sneeuw
Hagel
Vorst
Onweer
50 mm
40 mm
30 mm
26 mm
22 mm
18 mm
14 mm
10 mm
9 mm
8 mm
7 mm
6 mm
5 mm
4.5 mm
4 mm
3.5 mm
3 mm
2.5 mm
2 mm
1.5 mm
1 mm
0.8 mm
0.6 mm
0.4 mm
0.2 mm
0.05 mm
35°
30°
25°
20°
15°
10°
-5°
-10°
-15°
-20°
-25°
-30°
-35°
33> m/s
29 m/s
25 m/s
21 m/s
17 m/s
14 m/s
11 m/s
8 m/s
5 m/s
3 m/s
0 m/s
2600 J/kg
2400 J/kg
2200 J/kg
2000 J/kg
1800 J/kg
1600 J/kg
1400 J/kg
1200 J/kg
1000 J/kg
800 J/kg
600 J/kg
400 J/kg
200 J/kg
70 dBZ
65 dBZ
60 dBZ
55 dBZ
50 dBZ
45 dBZ
40 dBZ
35 dBZ
30 dBZ
25 dBZ
20 dBZ
15 dBZ
10 dBZ
5 dBZ
-1 K
-2 K
-3 K
-4 K
-5 K
-6 K
-7 K
-8 K
-9 K
950 m²/s²
900 m²/s²
850 m²/s²
800 m²/s²
750 m²/s²
700 m²/s²
650 m²/s²
600 m²/s²
550 m²/s²
500 m²/s²
450 m²/s²
400 m²/s²
350 m²/s²
300 m²/s²
250 m²/s²
200 m²/s²
150 m²/s²
100 m²/s²
46 m/s
44 m/s
42 m/s
40 m/s
38 m/s
36 m/s
34 m/s
32 m/s
30 m/s
28 m/s
26 m/s
24 m/s
22 m/s
20 m/s
16 m/s
12 m/s
8 m/s
4 m/s
30 m/s
28 m/s
26 m/s
24 m/s
22 m/s
20 m/s
18 m/s
16 m/s
14 m/s
12 m/s
10 m/s
8 m/s
6 m/s
4 m/s
2 m/s
3.0
2.8
2.6
2.4
2.2
2.0
1.8
1.6
1.4
1.2
1.0
0.8
0.6
0.4
0.2
15
14
13
12
11
10
9
8
7
6
5
4
3
2
1
90%
80%
70%
60%
50%
40%
30%
20%
10%
42
40
38
36
34
32
30
28
26
24
22
20
18
16
14
12
90+ cm
80-90 cm
70-80 cm
60-70 cm
50-60 cm
40-50 cm
30-40 cm
20-30 cm
10-20 cm
1-10 cm
Sneeuwval
Natte sneeuw
Regen
>120 mm
115 mm
110 mm
105 mm
100 mm
95 mm
90 mm
85 mm
80 mm
75 mm
70 mm
65 mm
60 mm
55 mm
50 mm
45 mm
45 mm
40 mm
35 mm
30 mm
25 mm
20 mm
15 mm
10 mm
5 mm
0.1 mm
960 hPa
880 hPa
800 hPa
720 hPa
640 hPa
560 hPa
584 gpdm
568 gpdm
552 gpdm
536 gpdm
520 gpdm
504 gpdm
488 gpdm
Extreem zwaar Noodweer Kans op onweer
15% 15% 5% 50% 15%

Dag




Kaart






35°
30°
25°
20°
15°
10°
-5°
-10°
-15°
-20°
-25°
-30°
-35°
33> m/s
29 m/s
25 m/s
21 m/s
17 m/s
14 m/s
11 m/s
8 m/s
5 m/s
3 m/s
0 m/s
Extreem zwaar Noodweer Kans op onweer
15% 15% 5% 50% 15%
>120 mm
115 mm
110 mm
105 mm
100 mm
95 mm
90 mm
85 mm
80 mm
75 mm
70 mm
65 mm
60 mm
55 mm
50 mm
45 mm
45 mm
40 mm
35 mm
30 mm
25 mm
20 mm
15 mm
10 mm